Time,TemperatureF,DewpointF,PressureIn,WindDirection,WindDirectionDegrees,WindSpeedMPH,WindSpeedGustMPH,Humidity,HourlyPrecipIn,Conditions,Clouds,dailyrainin,SoftwareType,DateUTC
2013-01-12 00:09:00,34.1,33.0,30.13,WSW,257,0.0,0.0,96,0.00,,,0.00,weatherlink.com 1.10,2013-01-12 05:09:00,
2013-01-12 00:24:00,34.2,33.0,30.13,WSW,257,0.0,0.0,96,0.01,,,0.01,weatherlink.com 1.10,2013-01-12 05:24:00,
2013-01-12 00:39:00,34.2,33.0,30.13,WSW,257,0.0,0.0,96,0.01,,,0.01,weatherlink.com 1.10,2013-01-12 05:39:00,
2013-01-12 00:54:00,34.3,33.0,30.14,WSW,257,0.0,0.0,96,0.01,,,0.01,weatherlink.com 1.10,2013-01-12 05:54:00,
2013-01-12 01:09:00,34.4,33.0,30.14,WSW,257,0.0,0.0,96,0.01,,,0.01,weatherlink.com 1.10,2013-01-12 06:09:00,
2013-01-12 01:24:00,34.4,33.0,30.14,WSW,257,0.0,0.0,96,0.00,,,0.01,weatherlink.com 1.10,2013-01-12 06:24:00,
2013-01-12 01:39:00,34.3,33.0,30.13,WSW,257,0.0,0.0,96,0.00,,,0.01,weatherlink.com 1.10,2013-01-12 06:39:00,
2013-01-12 01:54:00,34.2,33.0,30.12,WSW,257,0.0,0.0,96,0.00,,,0.01,weatherlink.com 1.10,2013-01-12 06:54:00,
2013-01-12 02:09:00,34.4,33.0,30.12,WSW,257,0.0,0.0,96,0.00,,,0.01,weatherlink.com 1.10,2013-01-12 07:09:00,
2013-01-12 02:24:00,34.4,33.0,30.13,WSW,257,0.0,0.0,96,0.00,,,0.01,weatherlink.com 1.10,2013-01-12 07:24:00,
2013-01-12 02:39:00,34.4,33.0,30.13,WSW,257,0.0,0.0,96,0.00,,,0.01,weatherlink.com 1.10,2013-01-12 07:39:00,
2013-01-12 02:54:00,34.5,34.0,30.14,WSW,257,0.0,0.0,96,0.00,,,0.01,weatherlink.com 1.10,2013-01-12 07:54:00,
2013-01-12 03:09:00,34.5,34.0,30.14,WSW,257,0.0,0.0,96,0.00,,,0.01,weatherlink.com 1.10,2013-01-12 08:09:00,
2013-01-12 03:24:00,34.6,34.0,30.13,South,191,0.0,0.0,96,0.00,,,0.01,weatherlink.com 1.10,2013-01-12 08:24:00,
2013-01-12 03:39:00,34.7,34.0,30.13,South,191,0.0,1.0,96,0.00,,,0.01,weatherlink.com 1.10,2013-01-12 08:39:00,
2013-01-12 03:54:00,35.0,34.0,30.11,South,191,0.0,0.0,96,0.00,,,0.01,weatherlink.com 1.10,2013-01-12 08:54:00,
2013-01-12 04:09:00,34.9,34.0,30.11,South,191,0.0,0.0,96,0.00,,,0.01,weatherlink.com 1.10,2013-01-12 09:09:00,
2013-01-12 04:24:00,34.9,34.0,30.11,South,191,0.0,1.0,96,0.00,,,0.01,weatherlink.com 1.10,2013-01-12 09:24:00,
2013-01-12 04:39:00,34.8,34.0,30.10,South,191,0.0,0.0,96,0.00,,,0.01,weatherlink.com 1.10,2013-01-12 09:39:00,
2013-01-12 04:54:00,34.9,34.0,30.11,South,191,0.0,0.0,96,0.00,,,0.01,weatherlink.com 1.10,2013-01-12 09:54:00,
2013-01-12 05:09:00,34.8,34.0,30.12,South,191,0.0,0.0,96,0.00,,,0.01,weatherlink.com 1.10,2013-01-12 10:09:00,
2013-01-12 05:24:00,34.7,34.0,30.12,South,191,0.0,0.0,96,0.00,,,0.01,weatherlink.com 1.10,2013-01-12 10:24:00,
2013-01-12 05:39:00,34.8,34.0,30.13,South,191,0.0,0.0,96,0.00,,,0.01,weatherlink.com 1.10,2013-01-12 10:39:00,
2013-01-12 05:54:00,34.8,34.0,30.13,South,191,0.0,0.0,96,0.00,,,0.01,weatherlink.com 1.10,2013-01-12 10:54:00,
2013-01-12 06:09:00,34.9,34.0,30.12,South,191,0.0,0.0,96,0.00,,,0.01,weatherlink.com 1.10,2013-01-12 11:09:00,
2013-01-12 06:25:00,34.7,34.0,30.12,SSW,192,0.0,0.0,96,0.00,,,0.01,weatherlink.com 1.10,2013-01-12 11:25:00,
2013-01-12 06:40:00,34.6,34.0,30.13,South,191,0.0,0.0,96,0.00,,,0.01,weatherlink.com 1.10,2013-01-12 11:40:00,
2013-01-12 06:55:00,34.4,33.0,30.13,South,191,0.0,0.0,96,0.00,,,0.01,weatherlink.com 1.10,2013-01-12 11:55:00,
2013-01-12 07:10:00,34.4,33.0,30.14,South,191,0.0,0.0,96,0.00,,,0.01,weatherlink.com 1.10,2013-01-12 12:10:00,
2013-01-12 07:25:00,34.4,33.0,30.14,South,191,0.0,0.0,96,0.00,,,0.01,weatherlink.com 1.10,2013-01-12 12:25:00,
2013-01-12 07:40:00,34.4,33.0,30.15,South,191,0.0,0.0,96,0.00,,,0.01,weatherlink.com 1.10,2013-01-12 12:40:00,
2013-01-12 07:55:00,34.7,34.0,30.15,SSW,192,0.0,0.0,96,0.00,,,0.01,weatherlink.com 1.10,2013-01-12 12:55:00,
2013-01-12 08:10:00,35.1,34.0,30.16,South,191,0.0,0.0,96,0.00,,,0.01,weatherlink.com 1.10,2013-01-12 13:10:00,
2013-01-12 08:25:00,35.5,35.0,30.15,South,191,0.0,0.0,96,0.00,,,0.01,weatherlink.com 1.10,2013-01-12 13:25:00,
2013-01-12 08:40:00,35.7,35.0,30.16,South,191,0.0,0.0,96,0.00,,,0.01,weatherlink.com 1.10,2013-01-12 13:40:00,
2013-01-12 08:55:00,36.2,36.0,30.15,South,191,0.0,0.0,97,0.00,,,0.01,weatherlink.com 1.10,2013-01-12 13:55:00,
2013-01-12 09:10:00,36.9,36.0,30.15,South,191,0.0,0.0,97,0.00,,,0.01,weatherlink.com 1.10,2013-01-12 14:10:00,
2013-01-12 09:25:00,37.5,37.0,30.15,South,191,0.0,0.0,97,0.00,,,0.01,weatherlink.com 1.10,2013-01-12 14:25:00,
2013-01-12 09:40:00,38.0,37.0,30.15,South,191,0.0,0.0,97,0.00,,,0.01,weatherlink.com 1.10,2013-01-12 14:40:00,
2013-01-12 09:55:00,38.5,38.0,30.15,South,191,0.0,0.0,97,0.00,,,0.01,weatherlink.com 1.10,2013-01-12 14:55:00,
2013-01-12 10:10:00,38.9,38.0,30.16,South,191,0.0,0.0,96,0.00,,,0.01,weatherlink.com 1.10,2013-01-12 15:10:00,
2013-01-12 10:25:00,39.8,39.0,30.16,South,191,0.0,0.0,97,0.00,,,0.01,weatherlink.com 1.10,2013-01-12 15:25:00,
2013-01-12 10:40:00,39.9,39.0,30.14,South,191,0.0,1.0,96,0.00,,,0.01,weatherlink.com 1.10,2013-01-12 15:40:00,
2013-01-12 10:55:00,40.5,40.0,30.15,West,259,0.0,1.0,96,0.00,,,0.01,weatherlink.com 1.10,2013-01-12 15:55:00,
2013-01-12 11:10:00,41.1,40.0,30.14,WSW,257,0.0,1.0,95,0.00,,,0.01,weatherlink.com 1.10,2013-01-12 16:10:00,
2013-01-12 11:25:00,41.3,40.0,30.14,West,271,0.0,3.0,95,0.00,,,0.01,weatherlink.com 1.10,2013-01-12 16:25:00,
2013-01-12 11:40:00,41.6,40.0,30.13,SW,222,0.0,1.0,95,0.00,,,0.01,weatherlink.com 1.10,2013-01-12 16:40:00,
2013-01-12 11:55:00,42.0,40.0,30.14,SSW,203,0.0,2.0,94,0.00,,,0.01,weatherlink.com 1.10,2013-01-12 16:55:00,
2013-01-12 12:10:00,42.7,41.0,30.12,SSW,211,0.0,1.0,94,0.00,,,0.01,weatherlink.com 1.10,2013-01-12 17:10:00,
2013-01-12 12:25:00,43.2,41.0,30.12,East,101,0.0,3.0,92,0.00,,,0.01,weatherlink.com 1.10,2013-01-12 17:25:00,
2013-01-12 12:40:00,43.3,41.0,30.11,SSW,207,0.0,3.0,92,0.00,,,0.01,weatherlink.com 1.10,2013-01-12 17:40:00,
2013-01-12 12:55:00,43.8,42.0,30.12,ESE,103,0.0,1.0,92,0.00,,,0.01,weatherlink.com 1.10,2013-01-12 17:55:00,
2013-01-12 13:10:00,44.3,42.0,30.12,ESE,109,0.0,1.0,93,0.00,,,0.01,weatherlink.com 1.10,2013-01-12 18:10:00,
2013-01-12 13:25:00,44.7,42.0,30.13,SW,222,0.0,1.0,91,0.00,,,0.01,weatherlink.com 1.10,2013-01-12 18:25:00,
2013-01-12 13:40:00,44.9,43.0,30.12,West,265,1.0,1.0,92,0.00,,,0.01,weatherlink.com 1.10,2013-01-12 18:40:00,
2013-01-12 13:55:00,45.0,43.0,30.12,WNW,298,0.0,2.0,92,0.00,,,0.01,weatherlink.com 1.10,2013-01-12 18:55:00,
2013-01-12 14:10:00,45.0,43.0,30.13,South,176,0.0,3.0,91,0.00,,,0.01,weatherlink.com 1.10,2013-01-12 19:10:00,
2013-01-12 14:25:00,45.1,43.0,30.11,NW,316,0.0,4.0,91,0.00,,,0.01,weatherlink.com 1.10,2013-01-12 19:25:00,
2013-01-12 14:40:00,45.3,43.0,30.12,NW,321,0.0,2.0,91,0.00,,,0.01,weatherlink.com 1.10,2013-01-12 19:40:00,
2013-01-12 14:55:00,45.5,43.0,30.12,SE,124,1.0,3.0,90,0.00,,,0.01,weatherlink.com 1.10,2013-01-12 19:55:00,
2013-01-12 15:10:00,44.9,42.0,30.12,South,172,0.0,2.0,90,0.00,,,0.01,weatherlink.com 1.10,2013-01-12 20:10:00,
2013-01-12 15:25:00,44.3,42.0,30.12,NW,318,0.0,5.0,91,0.00,,,0.01,weatherlink.com 1.10,2013-01-12 20:25:00,
2013-01-12 15:40:00,44.1,42.0,30.12,NNW,340,0.0,1.0,92,0.00,,,0.01,weatherlink.com 1.10,2013-01-12 20:40:00,
2013-01-12 15:55:00,43.6,42.0,30.12,WSW,240,0.0,2.0,92,0.00,,,0.01,weatherlink.com 1.10,2013-01-12 20:55:00,
2013-01-12 16:10:00,43.1,41.0,30.12,SSE,154,0.0,1.0,93,0.00,,,0.01,weatherlink.com 1.10,2013-01-12 21:10:00,
2013-01-12 16:25:00,42.7,41.0,30.14,WSW,239,0.0,1.0,93,0.00,,,0.01,weatherlink.com 1.10,2013-01-12 21:25:00,
2013-01-12 16:40:00,41.9,40.0,30.14,WSW,239,0.0,0.0,93,0.00,,,0.01,weatherlink.com 1.10,2013-01-12 21:40:00,
2013-01-12 16:55:00,41.7,40.0,30.14,ESE,105,1.0,1.0,95,0.00,,,0.01,weatherlink.com 1.10,2013-01-12 21:55:00,
2013-01-12 17:10:00,41.3,40.0,30.13,SSE,147,0.0,1.0,95,0.00,,,0.01,weatherlink.com 1.10,2013-01-12 22:10:00,
2013-01-12 17:25:00,41.5,40.0,30.13,SSW,211,0.0,2.0,95,0.00,,,0.01,weatherlink.com 1.10,2013-01-12 22:25:00,
2013-01-12 17:41:00,41.3,40.0,30.13,ESE,108,0.0,4.0,95,0.00,,,0.01,weatherlink.com 1.10,2013-01-12 22:41:00,
2013-01-12 17:55:00,40.8,40.0,30.14,ESE,120,2.0,2.0,95,0.00,,,0.01,weatherlink.com 1.10,2013-01-12 22:55:00,
2013-01-12 18:10:00,40.7,39.0,30.12,East,94,0.0,1.0,95,0.00,,,0.01,weatherlink.com 1.10,2013-01-12 23:10:00,
2013-01-12 18:26:00,40.6,40.0,30.13,SSE,167,0.0,1.0,96,0.00,,,0.01,weatherlink.com 1.10,2013-01-12 23:26:00,
2013-01-12 18:41:00,40.4,39.0,30.13,SW,224,0.0,2.0,96,0.00,,,0.01,weatherlink.com 1.10,2013-01-12 23:41:00,
2013-01-12 18:56:00,40.4,39.0,30.12,SW,233,0.0,5.0,96,0.00,,,0.01,weatherlink.com 1.10,2013-01-12 23:56:00,
2013-01-12 19:11:00,40.1,39.0,30.11,SE,131,0.0,2.0,96,0.00,,,0.01,weatherlink.com 1.10,2013-01-13 00:11:00,
2013-01-12 19:26:00,40.1,39.0,30.12,SW,225,0.0,3.0,96,0.00,,,0.01,weatherlink.com 1.10,2013-01-13 00:26:00,
2013-01-12 19:41:00,40.2,39.0,30.12,East,91,0.0,3.0,96,0.00,,,0.01,weatherlink.com 1.10,2013-01-13 00:41:00,
2013-01-12 19:56:00,39.8,39.0,30.12,East,92,0.0,1.0,96,0.00,,,0.01,weatherlink.com 1.10,2013-01-13 00:56:00,
2013-01-12 20:11:00,39.7,39.0,30.11,WSW,241,0.0,2.0,96,0.00,,,0.01,weatherlink.com 1.10,2013-01-13 01:11:00,
2013-01-12 20:26:00,39.9,39.0,30.12,SSW,211,0.0,1.0,97,0.00,,,0.01,weatherlink.com 1.10,2013-01-13 01:26:00,
2013-01-12 20:41:00,39.6,39.0,30.11,SSW,198,0.0,1.0,97,0.00,,,0.01,weatherlink.com 1.10,2013-01-13 01:41:00,
2013-01-12 20:56:00,39.9,39.0,30.11,NW,304,0.0,2.0,97,0.00,,,0.01,weatherlink.com 1.10,2013-01-13 01:56:00,
2013-01-12 21:11:00,39.3,38.0,30.11,NW,304,0.0,0.0,96,0.00,,,0.01,weatherlink.com 1.10,2013-01-13 02:11:00,
2013-01-12 21:26:00,39.0,38.0,30.10,WNW,300,0.0,0.0,96,0.00,,,0.01,weatherlink.com 1.10,2013-01-13 02:26:00,
2013-01-12 21:41:00,39.1,38.0,30.10,WNW,301,0.0,0.0,97,0.00,,,0.01,weatherlink.com 1.10,2013-01-13 02:41:00,
2013-01-12 21:56:00,39.2,39.0,30.11,SSW,198,0.0,1.0,97,0.00,,,0.01,weatherlink.com 1.10,2013-01-13 02:56:00,
2013-01-12 22:11:00,38.3,37.0,30.10,SSW,198,0.0,0.0,96,0.00,,,0.01,weatherlink.com 1.10,2013-01-13 03:11:00,
2013-01-12 22:26:00,38.7,38.0,30.11,WNW,293,0.0,0.0,97,0.00,,,0.01,weatherlink.com 1.10,2013-01-13 03:26:00,
2013-01-12 22:41:00,38.9,38.0,30.12,NW,319,0.0,0.0,97,0.00,,,0.01,weatherlink.com 1.10,2013-01-13 03:41:00,
2013-01-12 22:56:00,38.3,37.0,30.11,NW,319,0.0,0.0,96,0.00,,,0.01,weatherlink.com 1.10,2013-01-13 03:56:00,
2013-01-12 23:11:00,37.8,37.0,30.12,NW,319,0.0,0.0,96,0.00,,,0.01,weatherlink.com 1.10,2013-01-13 04:11:00,
2013-01-12 23:26:00,37.9,37.0,30.12,ENE,72,0.0,0.0,96,0.00,,,0.01,weatherlink.com 1.10,2013-01-13 04:26:00,
2013-01-12 23:41:00,37.7,37.0,30.12,ENE,72,0.0,0.0,96,0.00,,,0.01,weatherlink.com 1.10,2013-01-13 04:41:00,
2013-01-12 23:56:00,37.8,37.0,30.12,ENE,72,0.0,0.0,96,0.00,,,0.01,weatherlink.com 1.10,2013-01-13 04:56:00,